Погода в Флик-ан-Флаке

Маврикий     20°16′53″S   57°22′18″E
темп.,
°C
ветер,
м/с
пор.,
м/с
влажн.,
%
обл.,
%
осадки,
мм/ч
давл.,
гПа
погр.,
м
10 августа, ср
ср1001:00+21юв8106539 0.0 10231238
04:00+21юв910655 0.0 10211147
07:00+21юв9116010 0.0 10231512
10:00+22вюв10126548 0.1 10241619
13:00+22вюв10116346 0.2 10221664
16:00+22вюв1112620 0.3 10221507
19:00+21вюв1012667 0.0 10231438
22:00+21вюв1012683 0.1 10241324
11 августа, чт
чт1101:00+21вюв912670 0.0 10241366
04:00+20в8117249 0.2 10231151
07:00+21вюв911651 0.2 10241288
10:00+21вюв9117297 0.4 10251363
13:00+21вюв10117194 0.2 10231280
16:00+21вюв9107197 0.6 10231253
19:00+21вюв911640 0.1 10241375
22:00+21вюв910675 0.3 10251165
12 августа, пт
пт1201:00+21в810591 0.0 10251253
04:00+20вюв7107375 0.4 10231125
07:00+21вюв9117013 0.1 10241069
10:00+22вюв1010620 0.1 10251361
13:00+22вюв996799 0.1 10231515
16:00+22вюв996134 0.3 10221603
19:00+21вюв810695 0.0 10231173
22:00+22вюв810620 0.1 10241309
13 августа, сб
сб1301:00+21в810699 0.3 10231178
04:00+21вюв796789 0.4 10221050
07:00+21вюв797012 0.1 10231026
10:00+22в896375 0.3 10241580
13:00+22в886089 0.1 10211686
16:00+22вюв885850 0.2 10201605
19:00+21вюв79672 0.0 10221122
22:00+21в796212 0.1 10231098
14 августа, вс
вс1401:00+21вюв686528 0.1 10231022
04:00+21в696968 0.2 10211021
07:00+21в69717 0.1 1022853
10:00+22в686980 0.6 10231219
13:00+23всв886552 0.3 10201354
16:00+23в776313 0.4 10191433
19:00+22в78675 0.0 1021760
22:00+21вюв797229 0.1 1021647